Weather History for West Palm Beach, FL

Change the Weather History Date:

Friday, November 21, 2014

  Actual Average Record
Temperature  
Mean Temperature 72 °F 72 °F  
Max Temperature 75 °F 79 °F 90 °F (1900)
Min Temperature 69 °F 65 °F 38 °F (1914)
Degree Days  
Heating Degree Days 0 0  
Month to date heating degree days 10 0  
Since 1 July heating degree days 10 1  
Cooling Degree Days 7 7  
Month to date cooling degree days 131 183  
Year to date cooling degree days 4067 3804  
Growing Degree Days 22 (Base 50)    
Moisture  
Dew Point 65 °F    
Average Humidity 71    
Maximum Humidity 84    
Minimum Humidity 57    
Precipitation  
Precipitation 0.11 in 0.13 in 2.74 in (1993)
Month to date precipitation 1.68 3.56  
Year to date precipitation 59.27 57.76  
Snow  
Snow 0.00 in - - ()
Month to date snowfall 0.0  
Since 1 July snowfall 0.0  
Since 1 September snowfall 0.0  
Snow Depth 0.00 in    
Sea Level Pressure  
Sea Level Pressure 30.17 in    
Wind  
Wind Speed 15 mph (ENE)    
Max Wind Speed 26 mph    
Max Gust Speed 35 mph    
Visibility 9 miles    
Events Rain    
T = Trace of Precipitation, MM = Missing Value Source: NWS Daily Summary

Daily Weather History Graph

Daily Weather History Graph

Search for Another Location

Airport:

Trip Planner

Search our weather history database for the weather conditions in past years. The results will help you decide how hot, cold, wet, or windy it might be!

Date:

Astronomy

Nov. 21, 2014 Rise Set
Actual Time 6:44 AM EST 5:28 PM EST
Civil Twilight 6:19 AM EST 5:52 PM EST
Nautical Twilight 5:51 AM EST 6:21 PM EST
Astronomical Twilight 5:23 AM EST 6:48 PM EST
Moon 5:45 AM EST (11/21) 5:05 PM EST (11/21)
Length of Visible Light 11h 33m
Length of Day
10h 43m
Waning Crescent, 1% of the Moon is Illuminated
Nov 21
Waning Crescent
Nov 22
New
Nov 29
First Quarter
Dec 6
Full
Dec 14
Last Quarter

Hourly Weather History & Observations

Time (EST) Temp. Dew Point Humidity Pressure Visibility Wind Dir Wind Speed Gust Speed Precip Events Conditions
12:53 AM 73.9 °F 61.0 °F 64% 30.13 in 10.0 mi ENE 12.7 mph - N/A   Mostly Cloudy
1:53 AM 73.9 °F 62.1 °F 66% 30.13 in 10.0 mi ENE 13.8 mph - N/A   Overcast
2:53 AM 73.9 °F 63.0 °F 68% 30.12 in 10.0 mi ENE 11.5 mph - N/A   Overcast
3:53 AM 70.0 °F 62.1 °F 76% 30.13 in 10.0 mi ENE 12.7 mph - 0.00 in Rain Light Rain
4:53 AM 69.1 °F 64.0 °F 84% 30.12 in 10.0 mi NNE 9.2 mph - 0.05 in   Overcast
5:53 AM 70.0 °F 64.9 °F 84% 30.13 in 10.0 mi NE 11.5 mph - 0.00 in   Overcast
6:53 AM 70.0 °F 64.9 °F 84% 30.15 in 10.0 mi NNE 11.5 mph - N/A   Overcast
7:53 AM 70.0 °F 64.0 °F 81% 30.17 in 10.0 mi NNE 11.5 mph - 0.00 in   Overcast
8:53 AM 73.0 °F 64.0 °F 73% 30.19 in 10.0 mi NE 17.3 mph 25.3 mph N/A   Mostly Cloudy
9:30 AM 73.0 °F 64.0 °F 73% 30.21 in 10.0 mi NNE 12.7 mph - N/A   Overcast
9:53 AM 72.0 °F 64.9 °F 78% 30.21 in 10.0 mi NE 13.8 mph - 0.00 in Rain Light Rain
10:53 AM 70.0 °F 66.0 °F 87% 30.21 in 2.0 mi NE 15.0 mph - 0.00 in Rain Rain
11:20 AM 71.1 °F 66.9 °F 87% 30.21 in 4.0 mi NNE 11.5 mph - 0.01 in Rain Light Rain
11:53 AM 73.0 °F 64.9 °F 76% 30.20 in 10.0 mi NE 15.0 mph - 0.01 in   Overcast
12:02 PM 72.0 °F 66.0 °F 81% 30.20 in 2.5 mi NE 12.7 mph 25.3 mph 0.00 in Rain Rain
12:22 PM 71.1 °F 66.0 °F 84% 30.19 in 4.0 mi NNE 10.4 mph 21.9 mph 0.03 in Rain Light Rain
12:53 PM 72.0 °F 64.9 °F 78% 30.17 in 10.0 mi NNE 13.8 mph 24.2 mph 0.03 in   Overcast
1:53 PM 72.0 °F 64.9 °F 78% 30.15 in 10.0 mi ENE 17.3 mph 24.2 mph 0.00 in Rain Light Rain
2:53 PM 73.0 °F 63.0 °F 71% 30.15 in 10.0 mi ENE 17.3 mph 23.0 mph 0.00 in   Overcast
3:53 PM 73.0 °F 64.0 °F 73% 30.16 in 10.0 mi ENE 17.3 mph 26.5 mph 0.00 in   Overcast
4:53 PM 72.0 °F 64.0 °F 76% 30.17 in 10.0 mi ENE 19.6 mph 25.3 mph 0.00 in Rain Light Rain
5:53 PM 73.0 °F 64.0 °F 73% 30.17 in 10.0 mi ENE 18.4 mph 28.8 mph 0.00 in Rain Light Rain
6:53 PM 73.0 °F 64.0 °F 73% 30.18 in 10.0 mi ENE 17.3 mph 27.6 mph 0.00 in   Overcast
7:53 PM 73.9 °F 64.9 °F 73% 30.19 in 10.0 mi ENE 19.6 mph 25.3 mph N/A   Overcast
8:35 PM 73.9 °F 64.9 °F 73% 30.19 in 10.0 mi ENE 17.3 mph 35.7 mph N/A   Overcast
8:53 PM 73.9 °F 64.9 °F 73% 30.20 in 10.0 mi East 18.4 mph 31.1 mph N/A   Overcast
9:53 PM 73.0 °F 66.0 °F 79% 30.20 in 10.0 mi East 19.6 mph 25.3 mph 0.00 in Rain Light Rain
10:12 PM 72.0 °F 68.0 °F 87% 30.20 in 7.0 mi East 20.7 mph - 0.01 in Rain Light Rain
10:27 PM 71.1 °F 66.9 °F 87% 30.21 in 10.0 mi East 20.7 mph 28.8 mph 0.02 in Rain Light Rain
10:53 PM 72.0 °F 66.0 °F 81% 30.20 in 10.0 mi ENE 17.3 mph 28.8 mph 0.02 in Rain Light Rain
11:53 PM 73.9 °F 66.9 °F 79% 30.19 in 10.0 mi ENE 13.8 mph 26.5 mph 0.00 in Rain Light Rain